Flag for India Weather past 2 weeks in Panipat, Haryana, India

Now
81 °F

Passing clouds.


Feels Like: 80 °F
Forecast: 67 / 96 °F
Wind: No wind

Location: New Delhi Palam Airport


UV Index: 7 (High)

Visibility: 2 mi


Pressure: 29.86 "Hg

Humidity: 37%

Dew point: 52 °F

Location of PanipatLocation

Historic Weather in Panipat

°F

Panipat temperature yesterday

Maximum temperature yesterday: 91 °F (at 3:00 PM)
Minimum temperature yesterday: 68 °F (at 6:30 AM)
Average temperature yesterday: 78 °F

Past Weeks' High & Low Weather Summary

 TemperatureHumidityPressure
High100 °F (Apr 12, 3:00 PM)83% (Apr 18, 6:00 AM)29.98 "Hg (Apr 18, 6:00 AM)
Low63 °F (Apr 11, 6:30 AM)12% (Apr 11, 2:30 PM)29.71 "Hg (Apr 6, 4:30 PM)
Average82 °F37%29.84 "Hg
* Reported Apr 5 9:30 PM — Apr 20 10:00 PM, Panipat, Weather by CustomWeather, © 2014

Note: Actual official high and low records may vary slightly from our data, if they occured in-between our weather recording intervals... More about our weather records

Advertising

Historic Weather Conditions — Data for Previous 24 hours

 ConditionsComfort  
Time TempWeatherWind HumidityBarometerVisibility
10:00 PM
Apr 20
81 °FPassing clouds.No wind34%29.86 "Hg2 mi
9:30 PM82 °FPassing clouds.3 mph30%29.86 "Hg2 mi
9:00 PM84 °FPassing clouds.3 mph29%29.86 "Hg2 mi
8:30 PM88 °FPassing clouds.3 mph24%29.83 "Hg2 mi
8:00 PM90 °FPassing clouds.6 mph17%29.83 "Hg2 mi
7:00 PM91 °FScattered clouds.6 mph16%29.83 "Hg2 mi
6:30 PM91 °FScattered clouds.8 mph16%29.83 "Hg2 mi
6:00 PM93 °FScattered clouds.7 mph15%29.83 "Hg2 mi
5:30 PM93 °FScattered clouds.8 mph16%29.83 "Hg2 mi
5:00 PM93 °FScattered clouds.8 mph15%29.83 "Hg2 mi
4:30 PM95 °FScattered clouds.8 mph15%29.83 "Hg2 mi
4:00 PM95 °FScattered clouds.8 mph15%29.83 "Hg2 mi
3:30 PM95 °FScattered clouds.7 mph15%29.86 "Hg2 mi
3:00 PM95 °FScattered clouds.8 mph14%29.86 "Hg2 mi
2:30 PM95 °FScattered clouds.7 mph14%29.86 "Hg2 mi
1:30 PM95 °FScattered clouds.8 mph16%29.89 "Hg2 mi
1:00 PM93 °FScattered clouds.8 mph17%29.92 "Hg2 mi
12:30 PM93 °FScattered clouds.7 mph17%29.92 "Hg1 mi
12:00 PM93 °FScattered clouds.9 mph20%29.92 "Hg1 mi
11:30 AM91 °FScattered clouds.9 mph21%29.95 "Hg1 mi
11:00 AM91 °FHaze.5 mph24%29.95 "Hg1 mi
10:30 AM90 °FHaze.5 mph29%29.95 "Hg1 mi
10:00 AM90 °FClear.3 mph29%29.95 "Hg1 mi
9:30 AM86 °FClear.3 mph31%29.95 "Hg1 mi
9:00 AM84 °FClear.No wind35%29.95 "Hg1 mi
8:00 AM77 °FClear.No wind44%29.92 "Hg1 mi
7:30 AM75 °FClear.No wind54%29.92 "Hg1 mi
7:00 AM70 °FClear.No wind64%29.92 "Hg1 mi
6:30 AM70 °FClear.2 mph64%29.89 "Hg1 mi
6:00 AM70 °FClear.No wind60%29.89 "Hg1 mi
5:30 AM70 °FClear.No wind60%29.89 "Hg1 mi
5:00 AM72 °FClear.No wind53%29.86 "Hg1 mi
4:00 AM72 °FPassing clouds.No wind53%29.86 "Hg1 mi
3:30 AM73 °FPassing clouds.2 mph50%29.86 "Hg1 mi
3:00 AM73 °FPassing clouds.2 mph61%29.86 "Hg1 mi
2:30 AM73 °FPassing clouds.5 mph61%29.86 "Hg1 mi
2:00 AM73 °FHaze.No wind61%29.89 "Hg1 mi
1:30 AM73 °FHaze.No wind61%29.89 "Hg1 mi
1:00 AM73 °FHaze.3 mph61%29.89 "Hg1 mi
12:30 AM75 °FHaze.3 mph57%29.89 "Hg1 mi
12:00 AM75 °FHaze.3 mph57%29.89 "Hg1 mi
11:30 PM
Apr 19
75 °FHaze.5 mph57%29.89 "Hg1 mi
11:00 PM79 °FHaze.5 mph48%29.89 "Hg1 mi
Weather by CustomWeather, © 2014

See weather overview